Back to catalog

FENGYUN 1C DEB

AlivePO
NORAD 30967·DEBRIS·🇨🇳 China

Launched May 10, 1999 from Taiyuan Satellite Launch Center

Loading…

Next Passes (next 24 hours)

TLE

FreshSource: Space-Track

Epoch: Sep 13, 2026, 09:00 UTC

1 30967U 99025BBH 26256.37565904  .00001900  00000-0  39214-3 0  9992
2 30967  98.7927 222.8472 0093987 118.9652 242.1008 14.58960985 30087

Track FENGYUN 1C DEB in real time with AllMySat

Download on the App Store